Weather in Bolugur

Russia / Sakha (Yakutia) Republic     60°36′16″N   131°28′22″E
temp.,
°C
wind,
m/s
gust,
m/s
humid.,
%
clouds,
%
prec.,
mm/h
press.,
hPa
HPBL,
m
9 march, tue
tue900:00−12nne1197100 0.4 100321
03:00−15nnw119899 0.4 100520
06:00−18nw119998 0.1 100720
09:00−16wnw139598 0.1 1009197
12:00−12wnw2593100 0.3 1011478
15:00−9nw3589100 0.4 1011731
18:00−13w119495 0.1 101221
21:00−16ssw129559 0.1 101420
10 march, wed
wed1000:00−16s239753 0.0 101326
03:00−18sse339443 0.0 101079
06:00−15sse31191100 0.0 1007266
09:00−12s51182100 0.0 1005579
12:00−10ssw4892100 0.3 1004618
15:00−8wnw71187100 1.1 1005914
18:00−11w41082100 0.2 1009893
21:00−16wsw368992 0.2 1012120
11 march, thu
thu1100:00−16wsw3119392 0.0 1014293
03:00−17wsw399395 0.0 1015247
06:00−19wsw389588 0.0 1016189
09:00−15wsw499075 0.0 1016564
12:00−12wsw478697 0.1 10151171
15:00−11wnw588299 0.3 10151452
18:00−15wnw2388100 0.1 101635
21:00−20wsw119675 0.1 101820
12 march, fri
fri1200:00−22sw119743 0.0 101820
03:00−22ssw129961 0.0 101720
06:00−23s1110083 0.0 101620
09:00−17ese119485 0.0 1013111
12:00−12ese249198 0.0 1011391
15:00−11ese359199 0.1 1009506
18:00−11e2595100 0.3 1008252
21:00−14e269597 0.4 1009169
13 march, sat
sat1300:00−16e129698 0.1 100941
03:00−19e229691 0.1 100924
06:00−19e129394 0.0 100851
09:00−16ese138996 0.1 1008256
12:00−11se3692100 0.3 1006430
15:00−8sse3590100 0.3 1003507
18:00−10se41092100 0.0 1000325
21:00−10se41093100 0.1 996340